TimeAKDT,TemperatureF,Dew PointF,Humidity,Sea Level PressureIn,VisibilityMPH,Wind Direction,Wind SpeedMPH,Gust SpeedMPH,PrecipitationIn,Events,Conditions,WindDirDegrees,DateUTC
12:34 AM,-4.0,-7.6,85,30.59,10.0,West,5.8,-,N/A,,Overcast,280,2013-03-11 08:34:00
12:53 AM,-4.0,-7.6,85,30.61,10.0,West,6.9,-,N/A,,Overcast,280,2013-03-11 08:53:00
1:53 AM,-2.2,-5.8,85,30.63,10.0,WSW,9.2,-,N/A,,Overcast,240,2013-03-11 09:53:00
2:29 AM,-2.2,-5.8,85,30.63,10.0,WSW,8.1,-,N/A,,Overcast,250,2013-03-11 10:29:00
2:53 AM,-4.0,-7.6,85,30.64,10.0,WSW,8.1,-,N/A,,Overcast,250,2013-03-11 10:53:00
3:53 AM,-2.2,-5.8,85,30.67,10.0,WSW,10.4,-,N/A,,Overcast,250,2013-03-11 11:53:00
4:53 AM,-2.2,-4.0,92,30.69,4.0,West,13.8,-,N/A,,Overcast,260,2013-03-11 12:53:00
5:53 AM,-0.4,-4.0,85,30.71,9.0,WNW,10.4,-,0.00,,Overcast,290,2013-03-11 13:53:00
6:53 AM,-0.4,-4.0,85,30.73,4.0,WNW,10.4,-,0.00,Snow,Light Snow,290,2013-03-11 14:53:00
7:53 AM,-2.2,-6.0,84,30.75,7.0,West,11.5,-,0.00,,Overcast,270,2013-03-11 15:53:00
8:53 AM,-2.2,-6.0,84,30.76,3.0,West,8.1,-,0.00,Snow,Light Snow,280,2013-03-11 16:53:00
9:51 AM,-2.2,-5.8,85,30.77,2.5,WSW,9.2,-,0.00,Snow,Light Snow,250,2013-03-11 17:51:00
9:53 AM,-2.2,-6.0,84,30.77,2.5,West,9.2,-,0.00,Snow,Light Snow,270,2013-03-11 17:53:00
10:11 AM,-2.2,-5.8,85,30.77,4.0,WSW,9.2,-,0.00,Snow,Light Snow,240,2013-03-11 18:11:00
10:45 AM,-2.2,-5.8,85,30.77,2.5,West,8.1,-,0.00,Snow,Light Snow,260,2013-03-11 18:45:00
10:53 AM,-2.2,-6.0,84,30.78,4.0,WSW,10.4,-,0.00,Snow,Light Snow,240,2013-03-11 18:53:00
11:53 AM,-0.4,-4.9,81,30.80,5.0,West,11.5,-,0.00,Snow,Light Snow,260,2013-03-11 19:53:00
12:53 PM,-0.4,-4.9,81,30.81,7.0,West,13.8,-,0.00,,Overcast,260,2013-03-11 20:53:00
1:28 PM,-0.4,-4.0,85,30.80,2.5,West,10.4,-,0.00,Snow,Light Snow,280,2013-03-11 21:28:00
1:53 PM,-0.4,-4.0,85,30.81,2.5,WSW,10.4,-,0.00,Snow,Light Snow,250,2013-03-11 21:53:00
2:00 PM,-0.4,-4.0,85,30.80,4.0,West,11.5,-,0.00,Snow,Light Snow,260,2013-03-11 22:00:00
2:53 PM,-0.4,-4.0,85,30.82,4.0,West,10.4,-,0.00,Snow,Light Snow,280,2013-03-11 22:53:00
3:53 PM,-0.4,-4.9,81,30.83,6.0,West,10.4,-,0.00,Snow,Light Snow,270,2013-03-11 23:53:00
4:53 PM,-0.4,-4.9,81,30.83,6.0,West,9.2,-,0.00,Snow,Light Snow,260,2013-03-12 00:53:00
5:53 PM,-0.4,-4.9,81,30.84,6.0,West,11.5,-,0.00,Snow,Light Snow,270,2013-03-12 01:53:00
6:53 PM,-2.2,-6.0,84,30.86,9.0,West,12.7,-,0.00,Snow,Light Snow,280,2013-03-12 02:53:00
7:53 PM,-2.2,-6.0,84,30.85,8.0,West,8.1,-,0.00,Snow,Light Snow,260,2013-03-12 03:53:00
8:29 PM,-2.2,-7.6,78,30.84,2.0,WSW,9.2,-,0.00,Snow,Light Snow,240,2013-03-12 04:29:00
8:53 PM,-2.2,-7.1,80,30.84,2.0,WSW,8.1,-,0.00,,Overcast,250,2013-03-12 04:53:00
9:00 PM,-4.0,-7.6,85,30.83,1.5,WSW,8.1,-,N/A,,Overcast,240,2013-03-12 05:00:00
9:53 PM,-4.0,-7.6,85,30.84,1.2,West,11.5,-,N/A,,Overcast,270,2013-03-12 05:53:00
10:36 PM,-4.0,-7.6,85,30.82,0.8,West,10.4,-,N/A,,Mist,270,2013-03-12 06:36:00
10:53 PM,-4.0,-7.6,85,30.82,0.8,West,10.4,-,N/A,,Mist,270,2013-03-12 06:53:00
11:53 PM,-4.0,-5.8,92,30.83,0.5,West,13.8,-,N/A,Fog,Light Freezing Fog,270,2013-03-12 07:53:00